Time,TemperatureF,DewpointF,PressureIn,WindDirection,WindDirectionDegrees,WindSpeedMPH,WindSpeedGustMPH,Humidity,HourlyPrecipIn,Conditions,Clouds,dailyrainin,SoftwareType,DateUTC
2014-09-17 00:23:00,64.0,64.0,30.05,East,90,7.0,-999.0,100,-99.99,,,-99.99,,2014-09-17 05:23:00,
2014-09-17 00:33:00,64.0,64.0,30.05,East,90,7.0,-999.0,100,-99.99,,,-99.99,,2014-09-17 05:33:00,
2014-09-17 00:44:00,64.0,64.0,30.05,East,90,7.0,-999.0,100,-99.99,,,-99.99,,2014-09-17 05:44:00,
2014-09-17 00:53:00,64.0,64.0,30.05,East,90,7.0,-999.0,100,-99.99,,,-99.99,,2014-09-17 05:53:00,
2014-09-17 01:23:00,64.0,64.0,30.04,SE,130,8.0,-999.0,100,-99.99,,,-99.99,,2014-09-17 06:23:00,
2014-09-17 01:32:00,64.0,64.0,30.04,SE,130,8.0,-999.0,100,-99.99,,,-99.99,,2014-09-17 06:32:00,
2014-09-17 01:42:00,64.0,64.0,30.04,SE,130,8.0,-999.0,100,-99.99,,,-99.99,,2014-09-17 06:42:00,
2014-09-17 01:52:00,64.0,64.0,30.03,SE,130,7.0,-999.0,100,-99.99,,,-99.99,,2014-09-17 06:52:00,
2014-09-17 02:02:00,64.0,64.0,30.03,SE,130,7.0,-999.0,100,-99.99,,,-99.99,,2014-09-17 07:02:00,
2014-09-17 02:11:00,64.0,64.0,30.03,SE,130,7.0,-999.0,100,-99.99,,,-99.99,,2014-09-17 07:11:00,
2014-09-17 02:22:00,64.0,64.0,30.03,SE,130,7.0,-999.0,100,-99.99,,,-99.99,,2014-09-17 07:22:00,
2014-09-17 02:32:00,64.0,64.0,30.03,SE,130,7.0,-999.0,100,-99.99,,,-99.99,,2014-09-17 07:32:00,
2014-09-17 03:12:00,64.0,64.0,30.03,SE,130,6.0,-999.0,100,-99.99,,,-99.99,,2014-09-17 08:12:00,
2014-09-17 03:22:00,64.0,64.0,30.03,SE,130,6.0,-999.0,100,-99.99,,,-99.99,,2014-09-17 08:22:00,
2014-09-17 03:42:00,66.0,66.0,30.02,SE,130,6.0,-999.0,100,-99.99,,,-99.99,,2014-09-17 08:42:00,
2014-09-17 03:53:00,66.0,66.0,30.02,SE,130,6.0,-999.0,100,-99.99,,,-99.99,,2014-09-17 08:53:00,
2014-09-17 04:03:00,66.0,66.0,30.02,SE,130,6.0,-999.0,100,-99.99,,,-99.99,,2014-09-17 09:03:00,
2014-09-17 04:23:00,66.0,66.0,30.00,SE,140,6.0,-999.0,100,-99.99,,,-99.99,,2014-09-17 09:23:00,
2014-09-17 04:34:00,66.0,66.0,30.00,SE,140,6.0,-999.0,100,-99.99,,,-99.99,,2014-09-17 09:34:00,
2014-09-17 04:44:00,66.0,66.0,30.00,SE,140,6.0,-999.0,100,-99.99,,,-99.99,,2014-09-17 09:44:00,
2014-09-17 04:54:00,66.0,66.0,30.00,SE,140,6.0,-999.0,100,-99.99,,,-99.99,,2014-09-17 09:54:00,
2014-09-17 06:23:00,66.0,66.0,29.96,South,180,9.0,-999.0,100,-99.99,,,-99.99,,2014-09-17 11:23:00,
2014-09-17 06:43:00,66.0,66.0,29.95,South,180,8.0,-999.0,100,-99.99,,,-99.99,,2014-09-17 11:43:00,
2014-09-17 06:53:00,66.0,66.0,29.95,South,180,8.0,-999.0,100,-99.99,,,-99.99,,2014-09-17 11:53:00,
2014-09-17 07:02:00,66.0,66.0,29.95,South,180,8.0,-999.0,100,-99.99,,,-99.99,,2014-09-17 12:02:00,
2014-09-17 07:13:00,66.0,66.0,29.95,South,180,8.0,-999.0,100,-99.99,,,-99.99,,2014-09-17 12:13:00,
2014-09-17 07:43:00,66.0,66.0,29.96,SSW,210,10.0,16.0,100,-99.99,,,-99.99,,2014-09-17 12:43:00,
2014-09-17 07:53:00,66.0,66.0,29.97,SW,220,7.0,-999.0,100,-99.99,,,-99.99,,2014-09-17 12:53:00,
2014-09-17 08:02:00,66.0,66.0,29.97,SW,220,7.0,-999.0,100,-99.99,,,-99.99,,2014-09-17 13:02:00,
2014-09-17 08:12:00,66.0,66.0,29.97,SW,220,7.0,-999.0,100,-99.99,,,-99.99,,2014-09-17 13:12:00,
2014-09-17 08:23:00,66.0,66.0,29.97,SW,220,7.0,-999.0,100,-99.99,,,-99.99,,2014-09-17 13:23:00,
2014-09-17 08:32:00,66.0,66.0,29.97,SW,220,7.0,-999.0,100,-99.99,,,-99.99,,2014-09-17 13:32:00,
2014-09-17 09:13:00,70.0,70.0,29.97,SW,230,13.0,20.0,100,-99.99,,,-99.99,,2014-09-17 14:13:00,
2014-09-17 09:23:00,70.0,70.0,29.97,SW,230,13.0,20.0,100,-99.99,,,-99.99,,2014-09-17 14:23:00,
2014-09-17 09:42:00,72.0,72.0,29.97,WSW,240,7.0,-999.0,100,-99.99,,,-99.99,,2014-09-17 14:42:00,
2014-09-17 10:12:00,73.0,72.0,29.96,WSW,240,9.0,-999.0,94,-99.99,,,-99.99,,2014-09-17 15:12:00,
2014-09-17 10:22:00,73.0,72.0,29.96,WSW,240,9.0,-999.0,94,-99.99,,,-99.99,,2014-09-17 15:22:00,
2014-09-17 10:34:00,73.0,72.0,29.96,WSW,240,9.0,-999.0,94,-99.99,,,-99.99,,2014-09-17 15:34:00,